TimeEST,TemperatureF,Dew PointF,Humidity,Sea Level PressureIn,VisibilityMPH,Wind Direction,Wind SpeedMPH,Gust SpeedMPH,PrecipitationIn,Events,Conditions,WindDirDegrees,DateUTC
12:53 AM,57.9,54.0,87,30.02,10.0,SSW,4.6,-,N/A,,Overcast,200,2014-02-15 05:53:00
1:53 AM,55.0,54.0,96,30.01,10.0,WNW,4.6,-,N/A,,Clear,290,2014-02-15 06:53:00
2:53 AM,55.0,55.0,100,29.99,10.0,Calm,Calm,-,N/A,,Clear,0,2014-02-15 07:53:00
3:53 AM,57.0,54.0,89,29.99,10.0,SSW,5.8,-,N/A,,Clear,200,2014-02-15 08:53:00
4:53 AM,55.0,53.1,93,30.00,10.0,Calm,Calm,-,N/A,,Clear,0,2014-02-15 09:53:00
5:53 AM,55.0,53.1,93,30.03,10.0,Calm,Calm,-,N/A,,Clear,0,2014-02-15 10:53:00
6:53 AM,55.0,54.0,96,30.06,10.0,Calm,Calm,-,N/A,,Clear,0,2014-02-15 11:53:00
7:53 AM,60.1,57.0,90,30.07,10.0,SSW,4.6,-,N/A,,Partly Cloudy,200,2014-02-15 12:53:00
8:53 AM,68.0,62.1,81,30.09,10.0,SW,5.8,-,N/A,,Clear,220,2014-02-15 13:53:00
9:53 AM,73.0,62.1,68,30.09,10.0,WSW,12.7,-,N/A,,Clear,250,2014-02-15 14:53:00
10:53 AM,75.9,60.1,58,30.08,10.0,West,17.3,-,N/A,,Clear,280,2014-02-15 15:53:00
11:53 AM,75.9,59.0,56,30.06,10.0,West,18.4,23.0,N/A,,Mostly Cloudy,270,2014-02-15 16:53:00
12:53 PM,75.0,61.0,62,30.05,10.0,West,16.1,-,N/A,,Overcast,270,2014-02-15 17:53:00
1:53 PM,75.0,61.0,62,30.03,10.0,West,18.4,-,N/A,,Overcast,270,2014-02-15 18:53:00
2:53 PM,78.1,59.0,52,30.02,10.0,WSW,9.2,-,N/A,,Mostly Cloudy,250,2014-02-15 19:53:00
3:53 PM,79.0,55.9,45,30.02,10.0,West,16.1,-,N/A,,Clear,270,2014-02-15 20:53:00
4:53 PM,77.0,59.0,54,30.03,10.0,West,16.1,-,N/A,,Clear,280,2014-02-15 21:53:00
5:53 PM,73.0,61.0,66,30.06,10.0,West,11.5,-,N/A,,Clear,270,2014-02-15 22:53:00
6:53 PM,70.0,61.0,73,30.08,10.0,West,11.5,-,N/A,,Clear,260,2014-02-15 23:53:00
7:53 PM,62.1,60.1,93,30.10,10.0,West,8.1,-,N/A,,Clear,280,2014-02-16 00:53:00
8:53 PM,61.0,57.9,90,30.12,10.0,WNW,5.8,-,N/A,,Clear,290,2014-02-16 01:53:00
9:53 PM,57.9,57.9,100,30.13,10.0,WNW,5.8,-,N/A,,Clear,290,2014-02-16 02:53:00
10:53 PM,59.0,57.9,96,30.14,10.0,WNW,4.6,-,N/A,,Clear,300,2014-02-16 03:53:00
11:53 PM,59.0,59.0,100,30.14,10.0,NNW,3.5,-,N/A,,Clear,330,2014-02-16 04:53:00